Terrell, TX

12:17 AM CDT on July 27, 2017 (GMT -0500)
Terrell Municipal

Weather History for KTRL - February, 2014

Change the Weather History Date:

Thursday, February 27, 2014

  Actual Average (KGVT) Record (KGVT)
Temperature  
Mean Temperature 38 °F -  
Max Temperature 52 °F 57 °F 77 °F (2007)
Min Temperature 23 °F 43 °F 19 °F (2014)
Degree Days  
Heating Degree Days 28    
Moisture  
Dew Point 23 °F    
Average Humidity 57    
Maximum Humidity 88    
Minimum Humidity 31    
Precipitation  
Precipitation 0.00 in - - ()
Sea Level Pressure  
Sea Level Pressure 30.07 in    
Wind  
Wind Speed 2 mph (South)    
Max Wind Speed 10 mph    
Max Gust Speed -    
Visibility 10 miles    
Events      
Averages and records for this station are not official NWS values.
T = Trace of Precipitation, MM = Missing Value Source: NWS Daily Summary

Daily Weather History Graph

Daily Weather History Graph

Search for Another Location

Airport or City:

Trip Planner

Search our weather history database for the weather conditions in past years. The results will help you decide how hot, cold, wet, or windy it might be!

Date:

Astronomy

Feb. 27, 2014 Rise Set
Actual Time 6:55 AM CST 6:20 PM CST
Civil Twilight 6:30 AM CST 6:45 PM CST
Nautical Twilight 6:01 AM CST 7:14 PM CST
Astronomical Twilight 5:33 AM CST 7:42 PM CST
Moon 5:24 AM CST 4:50 PM CST
Length of Visible Light 12h 15m
Length of Day
11h 25m
Waning Crescent, 4% of the Moon is Illuminated
Feb 27
Waning Crescent
Mar 1
New
Mar 8
First Quarter
Mar 16
Full
Mar 23
Last Quarter

Hourly Weather History & Observations

Time (CST) Temp. Windchill Dew Point Humidity Pressure Visibility Wind Dir Wind Speed Gust Speed Precip Events Conditions
12:53 AM 28.0 °F - 19.9 °F 72% 30.19 in 10.0 mi Calm Calm - N/A   Clear
1:53 AM 26.1 °F - 19.0 °F 75% 30.19 in 10.0 mi Calm Calm - N/A   Clear
2:53 AM 25.0 °F - 21.0 °F 85% 30.18 in 10.0 mi Calm Calm - N/A   Clear
3:53 AM 23.0 °F - 19.9 °F 88% 30.17 in 10.0 mi Calm Calm - N/A   Clear
4:53 AM 24.1 °F - 21.0 °F 88% 30.17 in 10.0 mi Calm Calm - N/A   Clear
5:53 AM 23.0 °F - 19.9 °F 88% 30.17 in 10.0 mi Calm Calm - N/A   Clear
6:53 AM 23.0 °F - 19.9 °F 88% 30.18 in 10.0 mi Calm Calm - N/A   Clear
7:53 AM 27.0 °F - 23.0 °F 85% 30.17 in 10.0 mi Calm Calm - N/A   Clear
8:53 AM 35.1 °F - 25.0 °F 67% 30.18 in 10.0 mi Calm Calm - N/A   Clear
9:53 AM 41.0 °F 38.0 °F 16.0 °F 36% 30.18 in 10.0 mi NNW 4.6 mph - N/A   Clear
10:53 AM 44.1 °F - 17.1 °F 34% 30.16 in 10.0 mi Calm Calm - N/A   Clear
11:53 AM 46.0 °F 44.8 °F 18.0 °F 33% 30.13 in 10.0 mi WNW 3.5 mph - N/A   Clear
12:53 PM 48.0 °F - 21.9 °F 36% 30.09 in 10.0 mi SSW 8.1 mph - N/A   Clear
1:53 PM 50.0 °F - 21.9 °F 33% 30.05 in 10.0 mi SSE 6.9 mph - N/A   Clear
2:53 PM 52.0 °F - 23.0 °F 32% 30.01 in 10.0 mi South 9.2 mph - N/A   Clear
3:53 PM 52.0 °F - 21.9 °F 31% 30.00 in 10.0 mi Variable 5.8 mph - N/A   Clear
4:53 PM 52.0 °F - 24.1 °F 34% 29.96 in 10.0 mi SSE 10.4 mph - N/A   Clear
5:53 PM 50.0 °F - 24.1 °F 36% 29.95 in 10.0 mi SSE 8.1 mph - N/A   Clear
6:53 PM 48.9 °F - 25.0 °F 39% 29.95 in 10.0 mi South 3.5 mph - N/A   Clear
7:53 PM 46.0 °F 43.9 °F 26.1 °F 46% 29.95 in 10.0 mi SSE 4.6 mph - N/A   Clear
8:53 PM 44.1 °F 41.5 °F 27.0 °F 51% 29.94 in 10.0 mi SE 4.6 mph - N/A   Clear
9:53 PM 42.1 °F - 28.0 °F 58% 29.94 in 10.0 mi Calm Calm - N/A   Clear
10:53 PM 41.0 °F 36.4 °F 28.9 °F 62% 29.92 in 10.0 mi SSE 6.9 mph - N/A   Clear
11:53 PM 43.0 °F 38.8 °F 30.0 °F 60% 29.90 in 10.0 mi South 6.9 mph - N/A   Clear